This demonstration page uses our WeatherBlox Daily Observations layout. Learn more.

Left ArrowRight Arrow

34.16533, -84.80231

Hourly Observations for July 13, 2017

Temp ( °F °C ) Dew Point ( °F °C ) Humidity (%) Winds ( mph kmh ) Pressure ( in mb ) Visibility ( mi km ) Precip ( " mm )
12:53 am 00:53 Clear 74 23.3 74 23.3 100 100 Calm 30.14 1021 10 16 0.00 0.00
1:53 am 01:53 Clear 73 22.8 73 22.8 100 100 Calm 30.14 1021 10 16 0.00 0.00
2:53 am 02:53 Clear 71 21.7 71 21.7 100 100 Calm 30.11 1020 10 16 0.00 0.00
3:53 am 03:53 Clear 71 21.7 71 21.7 100 100 Calm 30.11 1020 10 16 0.00 0.00
4:53 am 04:53 Clear 70 21.1 70 21.1 100 100 Calm 30.13 1020 10 16 0.00 0.00
5:53 am 05:53 Clear 70 21.1 70 21.1 100 100 Calm 30.14 1021 10 16 0.00 0.00
6:53 am 06:53 Sunny 71 21.7 71 21.7 100 100 Calm 30.16 1021 10 16 0.00 0.00
7:53 am 07:53 Sunny 75 23.9 74 23.3 96 96 Calm 30.17 1022 10 16 0.00 0.00
8:53 am 08:53 Sunny 79 26.1 75 23.9 88 88 NNW 3 6 30.19 1022 10 16 0.00 0.00
9:53 am 09:53 Sunny 82 27.8 76 24.4 82 82 NNE 3 6 30.19 1022 10 16 0.00 0.00
10:53 am 10:53 Sunny 85 29.4 75 23.9 72 72 VRB 5 7 30.19 1022 10 16 0.00 0.00
11:53 am 11:53 Sunny 87 30.6 74 23.3 65 65 N 7 11 30.19 1022 10 16 0.00 0.00
12:53 pm 12:53 Partly Cloudy 87 30.6 74 23.3 65 65 VRB 3 6 30.17 1022 10 16 0.00 0.00
1:53 pm 13:53 Partly Cloudy 87 30.6 75 23.9 67 67 SSE 3 6 30.15 1021 10 16 0.00 0.00
2:26 pm 14:26 Mostly Cloudy with Thunderstorms 87 30.6 74 23.3 65 65 Calm 30.12 1020 10 16 0.00 0.00
2:53 pm 14:53 Cloudy with Light Rain 83 28.3 76 24.4 79 79 SSW 7 11 30.15 1021 10 16 0.00 0.03
3:53 pm 15:53 Sunny 88 31.1 73 22.8 61 61 VRB 3 6 30.12 1020 10 16 0.00 0.03
4:53 pm 16:53 Sunny 89 31.7 71 21.7 55 55 SSW 3 6 30.09 1019 10 16 0.00 0.00
5:53 pm 17:53 Sunny 89 31.7 74 23.3 61 61 VRB 3 6 30.09 1019 10 16 0.00 0.00
6:53 pm 18:53 Sunny 88 31.1 74 23.3 63 63 Calm 30.08 1019 10 16 0.00 0.00
7:05 pm 19:05 Sunny with Nearby Thunderstorms 87 30.6 75 23.9 67 67 Calm 30.06 1018 10 16 0.00 0.00
7:20 pm 19:20 Sunny 86 30 76 24.4 72 72 ESE 3 6 30.06 1018 10 16 0.00 0.00
7:53 pm 19:53 Mostly Sunny 84 28.9 78 25.6 82 82 SE 5 7 30.09 1019 10 16 0.00 0.00
8:53 pm 20:53 Clear 81 27.2 75 23.9 82 82 SSE 7 11 30.10 1019 10 16 0.00 0.00
9:53 pm 21:53 Clear 78 25.6 75 23.9 90 90 Calm 30.11 1020 10 16 0.00 0.00
10:53 pm 22:53 Clear 76 24.4 75 23.9 97 97 Calm 30.13 1020 10 16 0.00 0.00
11:53 pm 23:53 Clear 75 23.9 74 23.3 96 96 Calm 30.12 1020 10 16 0.00 0.00

Powered by AerisWeather